Location: ?????????
(54.7630°N, 39.4991°E)
Time: 01:40:23
(UTC+00:00)

Cosmos 1697 Rocket - Pass Details

Date: 14 April 2026
Orbit: 832 x 842 km, 71.0° (Epoch: 20 May)

Event Time Altitude Azimuth Distance (km) Brightness Sun altitude
Rises 20:42:14 0° 325° (NW) 3,407 6.9 -25.0°
Reaches altitude 10° 20:44:55 10° 334° (NNW) 2,468 6.1 -25.1°
Maximum altitude 20:50:06 35° 40° (NE) 1,324 4.0 -25.2°
Enters shadow 20:53:30 19° 95° (E) 1,905 4.4 -25.3°
